[[{"header":{"parameterUnit":"m.s-1","parameterCategory":1,"la1":30.2991,"la2":30.254,"lo1":-89.0895,"lo2":-89.0444,"dy":0.0017,"dx":0.0017,"nx":28,"ny":28,"refTime":"2024-02-13T09:00:00:Z","depth":0,"parameterNumber":2,"parameterNumberName":"U-component_of_WINDS"},"data":[0,0,0,0,0,0,0,0,0,0,0,0,0,0,0,0,0,0,0,0,0,0,0,0,0,0,0,0,0,0,0,0,0,0,0,0,0,0,0,0,0,0,0,0,0,0,0,0,0,0,0,0,0,0,0,0,0,0,-0.9704,-0.9705,0,-0.9812,-0.9813,-0.9815,-0.9775,-0.9773,-0.977,-0.9768,-0.9885,-0.989,-0.9895,0,0,0,0,0,0,0,0,0,0,0,0,0,-0.9467,-0.9471,-0.9703,-0.9705,-0.9706,-0.9812,-0.9813,-0.9815,-0.9776,-0.9773,-0.977,-0.9767,-0.9883,-0.9889,-0.9896,0,0,0,0,0,0,0,0,0,0,0,0,0,-0.9572,-0.9473,-0.9703,-0.9699,-0.97,-0.9812,-0.9814,-0.9815,-0.9776,-0.9773,-0.9769,-0.9765,-0.9881,-0.9889,-0.9897,-1.0021,0,0,-0.9922,-0.9925,0,0,0,0,0,0,0,0,-0.9566,-0.9581,-0.9698,-0.97,-0.9701,-0.9776,-0.9773,-0.9884,-0.9777,-0.9747,-0.9768,-0.9764,-0.9852,-0.9862,-0.9891,-1.0026,-1.0031,-0.9922,-0.9927,-0.9931,-0.9933,0,0,0,0,0,0,0,-0.9559,-0.9576,-0.9747,-0.97,-0.9702,-0.9693,-0.9704,-0.9794,-0.9819,-0.975,-0.9747,-0.976,-0.9852,-0.9883,-0.9893,-1.0033,-0.9922,-0.9929,-0.9934,-0.9938,-1.0276,-1.028,0,0,0,0,0,0,-0.955,-0.957,-0.9743,-0.975,-0.9623,-0.9701,-0.9713,-0.9756,-0.9818,-0.9824,-0.9763,-0.9758,-0.9871,-0.9884,-0.9897,-1.0048,-0.9931,-0.9938,-0.9943,-1.0272,-1.0277,-1.0282,0,0,0,0,0,0,-0.9545,-0.9566,-0.9739,-0.9659,-0.9681,-0.9709,-0.9757,-0.976,-0.9791,-0.9828,-0.9833,-0.979,-0.9869,-0.9886,-0.999,-1.0051,-0.9942,-0.9949,-1.0267,-1.0274,-1.028,-1.0349,0,0,0,0,0,0,-0.9539,-0.9564,-0.9611,-0.966,-0.9685,-0.9829,-0.9761,-0.9765,-0.9805,-0.9799,-0.9855,-0.9861,-0.9867,-0.9978,-0.9998,-1.0061,-0.9956,-1.0262,-1.027,-1.0278,-1.0342,-1.0357,-1.037,0,0,0,0,0,-0.953,-0.9627,-0.9613,-0.9635,-0.9743,-0.9832,-0.9846,-0.985,-0.9809,-0.9857,-0.9881,-0.9859,-1.0041,-0.9989,-1.0012,-1.0077,-1.0258,-1.0268,-1.0277,-1.0335,-1.0354,-1.037,0,0,0,0,0,0,-0.9586,-0.9634,-0.9619,-0.9734,-0.9779,-0.9825,-0.9886,-0.987,-0.9929,-0.9921,-0.9925,-0.9938,-1.0046,-1.0071,-1.0013,-1.0201,-1.0144,-1.0158,-1.018,-1.0199,-1.0212,-1.0205,-0.9962,0,0,0,0,0,-0.9612,-0.9678,-0.9717,-0.9815,-0.9838,-0.9858,-0.9897,-0.9896,-0.9943,-0.9963,-0.9994,-1.0043,-1.011,-1.0155,-1.022,-1.0344,-1.0357,-1.04,-1.0414,-1.0426,-1.0439,-1.0508,-1.0528,-1.0312,-1.0312,-1.0312,0,0,-0.9666,-0.97,-0.9742,-0.9827,-0.9862,-0.9932,-0.9875,-0.9952,-1.0005,-0.9975,-1.0075,-1.01,-1.0154,-1.0269,-1.0321,-1.0294,-1.0501,-1.0438,-1.0447,-1.0454,-1.0519,-1.054,-1.0558,-1.0319,-1.0318,-1.0317,0,0,-0.9801,-0.9832,-0.9918,-0.9953,-1.0006,-1.0018,-1.0039,-1.0087,-1.0102,-1.0202,-1.0181,-1.0245,-1.0361,-1.0401,-1.0437,-1.0585,-1.0568,-1.0606,-1.0682,-1.0749,-1.0766,-1.0781,-1.0836,-1.0855,-1.0618,-1.0619,-1.0619,0,-0.9862,-0.9966,-0.9965,-1.0044,-1.0082,-1.0056,-1.0144,-1.0179,-1.025,-1.0279,-1.0246,-1.0392,-1.0426,-1.0551,-1.0587,-1.0616,-1.0641,-1.0601,-1.0763,-1.0778,-1.0792,-1.0845,-1.0865,-1.0623,-1.0623,-1.0622,-1.0622,0,-1.004,-1.0112,-1.0176,-1.0244,-1.0289,-1.0372,-1.0385,-1.0431,-1.0425,-1.0442,-1.0544,-1.0584,-1.0657,-1.0686,-1.0682,-1.081,-1.0792,-1.0761,-1.0705,-1.0818,-1.0867,-1.0887,-1.0629,-1.0628,-1.0627,-1.0625,0,0,-1.0216,-1.0281,-1.0304,-1.0335,-1.039,-1.0447,-1.0529,-1.0598,-1.0638,-1.0688,-1.0759,-1.0857,-1.0829,-1.0869,-1.0869,-1.0927,-1.1045,-1.089,-1.0891,-1.0919,-1.1191,-1.1215,-1.1238,-1.1032,-1.1036,-1.1039,-1.1187,0,-1.0357,-1.05,-1.05,-1.0633,-1.07,-1.0675,-1.0747,-1.079,-1.0806,-1.0868,-1.0887,-1.0957,-1.0914,-1.0938,-1.0994,-1.1018,-1.11,-1.1007,-1.11,-1.1103,-1.109,-1.1264,-1.129,-1.1428,-1.1206,-1.1209,-1.1211,0,-1.0542,-1.0596,-1.0734,-1.0779,-1.0808,-1.0872,-1.0935,-1.0993,-1.1041,-1.1049,-1.1094,-1.1084,-1.117,-1.1108,-1.1226,-1.1164,-1.1201,-1.1218,-1.1224,-1.1235,-1.1166,-1.1282,-1.1472,-1.1493,-1.1241,-1.1239,-1.1237,0,-1.0659,-1.0766,-1.0863,-1.089,-1.0944,-1.099,-1.1016,-1.1059,-1.1101,-1.1156,-1.1183,-1.1249,-1.1285,-1.1337,-1.1346,-1.13,-1.1466,-1.1404,-1.1477,-1.1477,-1.1516,-1.1514,-1.1717,-1.1535,-1.1535,-1.1535,-1.1534,0,-1.0818,-1.0905,-1.0917,-1.0977,-1.1073,-1.1072,-1.1168,-1.119,-1.1229,-1.1294,-1.1276,-1.1337,-1.1344,-1.1408,-1.1416,-1.1514,-1.153,-1.1541,-1.1542,-1.1544,-1.1543,-1.1571,-1.1562,-1.154,-1.1539,-1.1538,-1.1537,0,-1.0967,-1.0978,-1.1083,-1.1124,-1.1137,-1.1206,-1.1243,-1.1301,-1.1315,-1.1398,-1.1417,-1.144,-1.1514,-1.1527,-1.1616,-1.1621,-1.1738,-1.1729,-1.1722,-1.1722,-1.1795,-1.1789,-1.2025,-1.2057,-1.1852,-1.1854,-1.1856,0,-1.107,-1.1135,-1.1184,-1.1225,-1.1252,-1.1318,-1.136,-1.1362,-1.1406,-1.1465,-1.1517,-1.1588,-1.1646,-1.1766,-1.1792,-1.1859,-1.1853,-1.1931,-1.1864,-1.1863,-1.1857,-1.1854,-1.1862,-1.1945,-1.1948,-1.1949,-1.1951,0,-1.1251,-1.1252,-1.1312,-1.1374,-1.1423,-1.1473,-1.1519,-1.1554,-1.1563,-1.1614,-1.1688,-1.1733,-1.1822,-1.1894,-1.1961,-1.1988,-1.1973,-1.1971,-1.1992,-1.1996,-1.199,-1.1996,-1.176,-1.1967,-1.1965,-1.1964,-1.1963,-1.1962,-1.1381,-1.1438,-1.1481,-1.1548,-1.1583,-1.1627,-1.1683,-1.1703,-1.1765,-1.1837,-1.1834,-1.1916,-1.1963,-1.205,-1.2082,-1.2147,-1.2123,-1.2152,-1.2161,-1.2169,-1.2176,-1.1977,-1.2159,-1.2159,-1.2158,-1.2158,-1.2158,0,-1.1563,-1.1589,-1.165,-1.1715,-1.1768,-1.1745,-1.1795,-1.1842,-1.1914,-1.1957,-1.2014,-1.21,-1.217,-1.22,-1.2269,-1.2316,-1.231,-1.2334,-1.2332,-1.2339,-1.2194,-1.217,-1.2338,-1.2338,-1.2338,-1.2338,-1.2337,-1.2337,-1.1664,-1.176,-1.1767,-1.188,-1.1906,-1.1985,-1.2016,-1.2057,-1.2091,-1.2188,-1.2245,-1.2263,-1.2302,-1.2373,-1.2437,-1.2444,-1.2471,-1.2499,-1.2503,-1.2367,-1.2349,-1.2332,-1.231,-1.2504,-1.2505,-1.2644,-1.2645,-1.2646]},{"header":{"parameterUnit":"m.s-1","parameterCategory":1,"la1":30.2991,"la2":30.254,"lo1":-89.0895,"lo2":-89.0444,"dy":0.0017,"dx":0.0017,"nx":28,"ny":28,"refTime":"2024-02-13T09:00:00:Z","depth":0,"parameterNumber":3,"parameterNumberName":"V-component_of_WINDS"},"data":[0,0,0,0,0,0,0,0,0,0,0,0,0,0,0,0,0,0,0,0,0,0,0,0,0,0,0,0,0,0,0,0,0,0,0,0,0,0,0,0,0,0,0,0,0,0,0,0,0,0,0,0,0,0,0,0,0,0,-2.8978,-2.8979,0,-2.9073,-2.9074,-2.9075,-2.9047,-2.9045,-2.9043,-2.9042,-2.9136,-2.914,-2.9144,0,0,0,0,0,0,0,0,0,0,0,0,0,-2.877,-2.8774,-2.8978,-2.8979,-2.898,-2.9072,-2.9074,-2.9075,-2.9048,-2.9045,-2.9043,-2.9041,-2.9134,-2.9139,-2.9144,0,0,0,0,0,0,0,0,0,0,0,0,0,-2.8862,-2.8776,-2.8978,-2.8978,-2.8979,-2.9072,-2.9074,-2.9075,-2.9048,-2.9045,-2.9042,-2.904,-2.9132,-2.9139,-2.9145,-2.9243,0,0,-2.9165,-2.9168,0,0,0,0,0,0,0,0,-2.8857,-2.887,-2.8977,-2.8978,-2.8979,-2.9045,-2.9035,-2.9132,-2.9049,-2.9022,-2.9041,-2.9038,-2.9108,-2.9116,-2.914,-2.9248,-2.9252,-2.9166,-2.9169,-2.9172,-2.9174,0,0,0,0,0,0,0,-2.8851,-2.8866,-2.9015,-2.8978,-2.898,-2.8972,-2.8982,-2.9053,-2.908,-2.9024,-2.9022,-2.9034,-2.9108,-2.9134,-2.9142,-2.9253,-2.9165,-2.9171,-2.9175,-2.9178,-2.9446,-2.9449,0,0,0,0,0,0,-2.8844,-2.8861,-2.9012,-2.9018,-2.891,-2.8978,-2.8989,-2.9027,-2.9079,-2.9084,-2.9036,-2.9032,-2.9124,-2.9135,-2.9145,-2.9264,-2.9172,-2.9178,-2.9182,-2.9443,-2.9447,-2.945,0,0,0,0,0,0,-2.884,-2.8858,-2.9008,-2.8939,-2.8958,-2.8985,-2.9027,-2.903,-2.9056,-2.9088,-2.9093,-2.9058,-2.9122,-2.9136,-2.9219,-2.9266,-2.9181,-2.9187,-2.9439,-2.9444,-2.9448,-2.9501,0,0,0,0,0,0,-2.8834,-2.8856,-2.8895,-2.894,-2.8961,-2.9082,-2.903,-2.9034,-2.9068,-2.9064,-2.911,-2.9115,-2.9121,-2.921,-2.9226,-2.9274,-2.9192,-2.9435,-2.9441,-2.9447,-2.9495,-2.9507,-2.9517,0,0,0,0,0,-2.8826,-2.8905,-2.8897,-2.8915,-2.901,-2.9085,-2.9097,-2.9103,-2.9072,-2.911,-2.9131,-2.9113,-2.9259,-2.9219,-2.9236,-2.9287,-2.9432,-2.9439,-2.9446,-2.949,-2.9505,-2.9517,0,0,0,0,0,0,-2.8864,-2.8911,-2.8902,-2.8998,-2.9038,-2.908,-2.9129,-2.9118,-2.9167,-2.9161,-2.9166,-2.9176,-2.9262,-2.9282,-2.9237,-2.9385,-2.9341,-2.9352,-2.9368,-2.9382,-2.9393,-2.9386,-2.9197,0,0,0,0,0,-2.8883,-2.8941,-2.8979,-2.906,-2.908,-2.9101,-2.9134,-2.9135,-2.9176,-2.9192,-2.9219,-2.9258,-2.9313,-2.9348,-2.94,-2.9498,-2.9508,-2.9542,-2.9553,-2.9562,-2.9571,-2.9624,-2.964,-2.9474,-2.9474,-2.9474,0,0,-2.8924,-2.8957,-2.8993,-2.9068,-2.9099,-2.9158,-2.9115,-2.9179,-2.9223,-2.9202,-2.9282,-2.9303,-2.9347,-2.9438,-2.948,-2.9458,-2.9619,-2.9571,-2.9578,-2.9583,-2.9633,-2.9649,-2.9663,-2.9479,-2.9478,-2.9477,0,0,-2.9028,-2.9059,-2.913,-2.9162,-2.9209,-2.9223,-2.924,-2.9284,-2.9297,-2.9378,-2.9364,-2.9415,-2.9509,-2.9541,-2.9569,-2.9686,-2.9671,-2.9702,-2.976,-2.9811,-2.9824,-2.9836,-2.9877,-2.9892,-2.9712,-2.9712,-2.9712,0,-2.9072,-2.9161,-2.9167,-2.9233,-2.9266,-2.9251,-2.9322,-2.9352,-2.9414,-2.9437,-2.9413,-2.953,-2.9559,-2.9657,-2.9685,-2.9709,-2.9728,-2.9697,-2.9822,-2.9834,-2.9845,-2.9884,-2.99,-2.9715,-2.9715,-2.9714,-2.9714,0,-2.9213,-2.9275,-2.9326,-2.9387,-2.9426,-2.9494,-2.951,-2.9548,-2.9547,-2.9562,-2.9645,-2.9678,-2.9737,-2.976,-2.9759,-2.9858,-2.9844,-2.9821,-2.9776,-2.9864,-2.9901,-2.9916,-2.972,-2.9719,-2.9718,-2.9717,0,0,-2.9343,-2.9407,-2.9426,-2.9453,-2.9505,-2.9552,-2.9619,-2.9677,-2.971,-2.9753,-2.9809,-2.9888,-2.9868,-2.99,-2.9902,-2.9947,-3.0037,-2.9919,-2.992,-2.9939,-3.0148,-3.0165,-3.0182,-3.0028,-3.0031,-3.0033,-3.0144,0,-2.9452,-2.9571,-2.9578,-2.9685,-2.9742,-2.9729,-2.9787,-2.9824,-2.9841,-2.989,-2.9908,-2.9964,-2.9933,-2.9952,-2.9997,-3.0017,-3.0079,-3.0009,-3.0079,-3.0081,-3.0068,-3.0202,-3.022,-3.0323,-3.0159,-3.0161,-3.0163,0,-2.9594,-2.9642,-2.9756,-2.9799,-2.9823,-2.9876,-2.9929,-2.9977,-3.0019,-3.0028,-3.0064,-3.006,-3.0127,-3.0081,-3.0174,-3.0126,-3.0155,-3.0169,-3.0173,-3.018,-3.0127,-3.0212,-3.0356,-3.0372,-3.0186,-3.0184,-3.0182,0,-2.9677,-2.9771,-2.9851,-2.9875,-2.9927,-2.9964,-2.9987,-3.0026,-3.0061,-3.0107,-3.013,-3.0183,-3.0212,-3.0253,-3.0263,-3.0228,-3.0356,-3.031,-3.0364,-3.0364,-3.0391,-3.039,-3.0543,-3.0411,-3.041,-3.041,-3.041,0,-2.9798,-2.9867,-2.9889,-2.9938,-3.0016,-3.0023,-3.0099,-3.012,-3.0155,-3.0207,-3.0198,-3.0247,-3.0257,-3.0307,-3.0315,-3.0391,-3.0404,-3.0412,-3.0413,-3.0413,-3.0412,-3.0432,-3.0425,-3.0414,-3.0413,-3.0412,-3.0412,0,-2.9904,-2.9921,-3.0007,-3.005,-3.0063,-3.0118,-3.0154,-3.0201,-3.0216,-3.0282,-3.0298,-3.0322,-3.0381,-3.0395,-3.0465,-3.047,-3.0559,-3.0553,-3.0546,-3.0545,-3.0598,-3.0593,-3.0769,-3.0793,-3.0646,-3.0647,-3.0648,0,-2.998,-3.0033,-3.0082,-3.0117,-3.0142,-3.0198,-3.0234,-3.0243,-3.028,-3.0331,-3.0371,-3.043,-3.0477,-3.0572,-3.0595,-3.0648,-3.0644,-3.0702,-3.0651,-3.0649,-3.0644,-3.0641,-3.0646,-3.0711,-3.0713,-3.0714,-3.0715,0,-3.0112,-3.0118,-3.017,-3.0225,-3.0267,-3.0311,-3.0352,-3.0381,-3.0395,-3.0437,-3.0498,-3.0535,-3.0607,-3.0665,-3.0718,-3.0741,-3.0731,-3.0731,-3.0746,-3.0746,-3.0739,-3.0744,-3.0572,-3.0727,-3.0725,-3.0725,-3.0724,-3.0724,-3.0205,-3.0252,-3.0294,-3.0352,-3.0384,-3.0423,-3.0469,-3.049,-3.0542,-3.0602,-3.0603,-3.067,-3.0709,-3.0781,-3.0807,-3.0858,-3.084,-3.0862,-3.0868,-3.0873,-3.0878,-3.0731,-3.0868,-3.0867,-3.0867,-3.0867,-3.0867,0,-3.0337,-3.0363,-3.0416,-3.0475,-3.052,-3.0507,-3.0552,-3.0591,-3.065,-3.0688,-3.0735,-3.0805,-3.0861,-3.0888,-3.0943,-3.0979,-3.0976,-3.0993,-3.0991,-3.0996,-3.0891,-3.0872,-3.0995,-3.0995,-3.0995,-3.0995,-3.0995,-3.0995,-3.0411,-3.0489,-3.05,-3.0594,-3.062,-3.0686,-3.0712,-3.0748,-3.0779,-3.0857,-3.0904,-3.0922,-3.0956,-3.1013,-3.1064,-3.107,-3.1091,-3.1111,-3.1115,-3.1016,-3.1003,-3.0991,-3.0973,-3.1115,-3.1116,-3.1216,-3.1217,-3.1217]}]]